Time,TemperatureF,DewpointF,PressureIn,WindDirection,WindDirectionDegrees,WindSpeedMPH,WindSpeedGustMPH,Humidity,HourlyPrecipIn,Conditions,Clouds,dailyrainin,SoftwareType,DateUTC
2013-01-03 00:02:00,21.6,13.7,30.26,South,184,4.0,4.0,71,0.00,,CLR,0.00,VWS V14.01,2013-01-03 06:02:00,
2013-01-03 00:07:00,21.8,13.5,30.26,South,184,3.0,5.0,70,0.00,,CLR,0.00,VWS V14.01,2013-01-03 06:07:00,
2013-01-03 00:12:00,21.9,13.6,30.26,South,184,3.0,5.0,70,0.00,,CLR,0.00,VWS V14.01,2013-01-03 06:12:00,
2013-01-03 00:17:00,22.0,13.7,30.26,South,184,2.0,5.0,70,0.00,,CLR,0.00,VWS V14.01,2013-01-03 06:17:00,
2013-01-03 00:22:00,22.1,13.5,30.26,South,184,2.0,4.0,69,0.00,,CLR,0.00,VWS V14.01,2013-01-03 06:22:00,
2013-01-03 00:27:00,22.2,13.6,30.26,South,184,2.0,5.0,69,0.00,,CLR,0.00,VWS V14.01,2013-01-03 06:27:00,
2013-01-03 00:32:00,22.2,13.6,30.26,South,184,2.0,3.0,69,0.00,,CLR,0.00,VWS V14.01,2013-01-03 06:32:00,
2013-01-03 00:37:00,22.1,13.5,30.25,South,184,3.0,4.0,69,0.00,,CLR,0.00,VWS V14.01,2013-01-03 06:37:00,
2013-01-03 00:42:00,22.1,13.8,30.25,South,184,2.0,6.0,70,0.00,,CLR,0.00,VWS V14.01,2013-01-03 06:42:00,
2013-01-03 00:47:00,22.1,13.8,30.25,South,184,2.0,6.0,70,0.00,,CLR,0.00,VWS V14.01,2013-01-03 06:47:00,
2013-01-03 00:52:00,22.1,14.1,30.25,South,183,3.0,4.0,71,0.00,,CLR,0.00,VWS V14.01,2013-01-03 06:52:00,
2013-01-03 00:57:00,22.2,14.2,30.24,South,182,2.0,8.0,71,0.00,,CLR,0.00,VWS V14.01,2013-01-03 06:57:00,
2013-01-03 01:02:00,22.3,14.3,30.24,South,182,2.0,5.0,71,0.00,,CLR,0.00,VWS V14.01,2013-01-03 07:02:00,
2013-01-03 01:07:00,22.3,14.3,30.24,South,182,1.0,7.0,71,0.00,,CLR,0.00,VWS V14.01,2013-01-03 07:07:00,
2013-01-03 01:12:00,22.1,14.5,30.24,South,182,4.0,5.0,72,0.00,,CLR,0.00,VWS V14.01,2013-01-03 07:12:00,
2013-01-03 01:18:00,22.1,14.5,30.24,South,183,4.0,8.0,72,0.00,,CLR,0.00,VWS V14.01,2013-01-03 07:18:00,
2013-01-03 01:23:00,22.0,14.4,30.24,South,183,2.0,6.0,72,0.00,,CLR,0.00,VWS V14.01,2013-01-03 07:23:00,
2013-01-03 01:28:00,21.9,14.3,30.25,South,183,2.0,6.0,72,0.00,,CLR,0.00,VWS V14.01,2013-01-03 07:28:00,
2013-01-03 01:33:00,21.7,14.4,30.25,South,183,0.0,0.0,73,0.00,,CLR,0.00,VWS V14.01,2013-01-03 07:33:00,
2013-01-03 01:38:00,21.6,14.3,30.25,South,183,0.0,2.0,73,0.00,,CLR,0.00,VWS V14.01,2013-01-03 07:38:00,
2013-01-03 01:43:00,21.6,14.6,30.26,South,183,3.0,3.0,74,0.00,,CLR,0.00,VWS V14.01,2013-01-03 07:43:00,
2013-01-03 01:48:00,21.6,14.6,30.26,South,183,2.0,3.0,74,0.00,,CLR,0.00,VWS V14.01,2013-01-03 07:48:00,
2013-01-03 01:53:00,21.6,14.9,30.26,South,183,2.0,3.0,75,0.00,,CLR,0.00,VWS V14.01,2013-01-03 07:53:00,
2013-01-03 01:58:00,21.6,14.9,30.26,South,183,2.0,3.0,75,0.00,,CLR,0.00,VWS V14.01,2013-01-03 07:58:00,
2013-01-03 02:03:00,21.6,14.9,30.26,South,183,1.0,3.0,75,0.00,,CLR,0.00,VWS V14.01,2013-01-03 08:03:00,
2013-01-03 02:08:00,21.6,14.9,30.26,South,183,0.0,3.0,75,0.00,,CLR,0.00,VWS V14.01,2013-01-03 08:08:00,
2013-01-03 02:13:00,21.7,15.3,30.26,South,183,0.0,2.0,76,0.00,,CLR,0.00,VWS V14.01,2013-01-03 08:13:00,
2013-01-03 02:18:00,21.7,15.3,30.26,South,184,0.0,5.0,76,0.00,,CLR,0.00,VWS V14.01,2013-01-03 08:18:00,
2013-01-03 02:23:00,21.6,15.2,30.26,South,184,0.0,2.0,76,0.00,,CLR,0.00,VWS V14.01,2013-01-03 08:23:00,
2013-01-03 02:28:00,21.6,15.2,30.26,SSW,194,0.0,3.0,76,0.00,,CLR,0.00,VWS V14.01,2013-01-03 08:28:00,
2013-01-03 02:33:00,21.7,15.3,30.26,SSW,194,0.0,2.0,76,0.00,,CLR,0.00,VWS V14.01,2013-01-03 08:33:00,
2013-01-03 02:38:00,21.8,15.7,30.26,SSW,194,3.0,4.0,77,0.00,,CLR,0.00,VWS V14.01,2013-01-03 08:38:00,
2013-01-03 02:43:00,21.9,15.5,30.26,SSW,196,1.0,3.0,76,0.00,,CLR,0.00,VWS V14.01,2013-01-03 08:43:00,
2013-01-03 02:48:00,22.0,15.6,30.26,SSW,200,0.0,4.0,76,0.00,,CLR,0.00,VWS V14.01,2013-01-03 08:48:00,
2013-01-03 02:53:00,22.1,15.7,30.26,SSW,201,2.0,3.0,76,0.00,,CLR,0.00,VWS V14.01,2013-01-03 08:53:00,
2013-01-03 02:58:00,22.2,15.8,30.26,SSW,201,0.0,4.0,76,0.00,,CLR,0.00,VWS V14.01,2013-01-03 08:58:00,
2013-01-03 03:03:00,22.2,15.8,30.26,WSW,238,3.0,7.0,76,0.00,,CLR,0.00,VWS V14.01,2013-01-03 09:03:00,
2013-01-03 03:08:00,22.2,15.8,30.26,SW,223,0.0,7.0,76,0.00,,CLR,0.00,VWS V14.01,2013-01-03 09:08:00,
2013-01-03 03:13:00,22.2,15.8,30.27,SW,218,0.0,4.0,76,0.00,,CLR,0.00,VWS V14.01,2013-01-03 09:13:00,
2013-01-03 03:18:00,22.1,15.7,30.27,SW,218,0.0,4.0,76,0.00,,CLR,0.00,VWS V14.01,2013-01-03 09:18:00,
2013-01-03 03:23:00,22.1,15.7,30.27,SW,218,2.0,2.0,76,0.00,,CLR,0.00,VWS V14.01,2013-01-03 09:23:00,
2013-01-03 03:28:00,22.1,16.0,30.27,SW,219,1.0,4.0,77,0.00,,CLR,0.00,VWS V14.01,2013-01-03 09:28:00,
2013-01-03 03:33:00,22.1,16.0,30.27,SW,219,1.0,2.0,77,0.00,,CLR,0.00,VWS V14.01,2013-01-03 09:33:00,
2013-01-03 03:38:00,22.0,15.9,30.27,SW,219,0.0,3.0,77,0.00,,CLR,0.00,VWS V14.01,2013-01-03 09:38:00,
2013-01-03 03:43:00,22.0,15.9,30.27,SW,219,1.0,2.0,77,0.00,,CLR,0.00,VWS V14.01,2013-01-03 09:43:00,
2013-01-03 03:48:00,22.0,15.9,30.27,SW,219,1.0,3.0,77,0.00,,CLR,0.00,VWS V14.01,2013-01-03 09:48:00,
2013-01-03 03:53:00,22.0,15.9,30.27,SW,219,0.0,2.0,77,0.00,,CLR,0.00,VWS V14.01,2013-01-03 09:53:00,
2013-01-03 03:58:00,22.0,15.9,30.27,SW,219,1.0,3.0,77,0.00,,CLR,0.00,VWS V14.01,2013-01-03 09:58:00,
2013-01-03 04:03:00,21.9,15.8,30.27,SW,219,0.0,0.0,77,0.00,,CLR,0.00,VWS V14.01,2013-01-03 10:03:00,
2013-01-03 04:08:00,21.8,15.7,30.26,SW,219,0.0,3.0,77,0.00,,CLR,0.00,VWS V14.01,2013-01-03 10:08:00,
2013-01-03 04:13:00,21.7,15.9,30.27,SW,219,0.0,2.0,78,0.00,,CLR,0.00,VWS V14.01,2013-01-03 10:13:00,
2013-01-03 04:18:00,21.7,15.6,30.27,SW,219,0.0,5.0,77,0.00,,CLR,0.00,VWS V14.01,2013-01-03 10:18:00,
2013-01-03 04:23:00,21.6,15.5,30.27,SW,219,0.0,2.0,77,0.00,,CLR,0.00,VWS V14.01,2013-01-03 10:23:00,
2013-01-03 04:28:00,21.5,15.7,30.27,SW,219,0.0,2.0,78,0.00,,CLR,0.00,VWS V14.01,2013-01-03 10:28:00,
2013-01-03 04:33:00,21.4,15.6,30.27,SW,219,0.0,2.0,78,0.00,,CLR,0.00,VWS V14.01,2013-01-03 10:33:00,
2013-01-03 04:38:00,21.4,15.6,30.26,SW,219,0.0,5.0,78,0.00,,CLR,0.00,VWS V14.01,2013-01-03 10:38:00,
2013-01-03 04:43:00,21.4,15.6,30.26,SW,219,0.0,0.0,78,0.00,,CLR,0.00,VWS V14.01,2013-01-03 10:43:00,
2013-01-03 04:48:00,21.3,15.5,30.26,SW,219,0.0,1.0,78,0.00,,CLR,0.00,VWS V14.01,2013-01-03 10:48:00,
2013-01-03 04:53:00,21.3,15.5,30.27,SW,219,0.0,0.0,78,0.00,,CLR,0.00,VWS V14.01,2013-01-03 10:53:00,
2013-01-03 04:58:00,21.1,15.6,30.27,SW,219,0.0,0.0,79,0.00,,CLR,0.00,VWS V14.01,2013-01-03 10:58:00,
2013-01-03 05:03:00,21.0,15.5,30.27,SW,219,0.0,0.0,79,0.00,,CLR,0.00,VWS V14.01,2013-01-03 11:03:00,
2013-01-03 05:08:00,20.9,15.4,30.27,SW,219,0.0,1.0,79,0.00,,CLR,0.00,VWS V14.01,2013-01-03 11:08:00,
2013-01-03 05:13:00,20.9,15.4,30.27,SW,219,0.0,1.0,79,0.00,,CLR,0.00,VWS V14.01,2013-01-03 11:13:00,
2013-01-03 05:18:00,20.9,15.4,30.28,SW,219,0.0,1.0,79,0.00,,CLR,0.00,VWS V14.01,2013-01-03 11:18:00,
2013-01-03 05:23:00,21.0,15.5,30.28,SW,219,0.0,0.0,79,0.00,,CLR,0.00,VWS V14.01,2013-01-03 11:23:00,
2013-01-03 05:28:00,20.9,15.4,30.28,SW,219,0.0,2.0,79,0.00,,CLR,0.00,VWS V14.01,2013-01-03 11:28:00,
2013-01-03 05:33:00,20.9,15.7,30.28,SW,219,0.0,0.0,80,0.00,,CLR,0.00,VWS V14.01,2013-01-03 11:33:00,
2013-01-03 05:38:00,20.9,15.7,30.29,SW,219,1.0,2.0,80,0.00,,CLR,0.00,VWS V14.01,2013-01-03 11:38:00,
2013-01-03 05:43:00,20.9,15.7,30.29,SW,219,1.0,2.0,80,0.00,,CLR,0.00,VWS V14.01,2013-01-03 11:43:00,
2013-01-03 05:48:00,21.0,15.8,30.29,SW,219,0.0,2.0,80,0.00,,CLR,0.00,VWS V14.01,2013-01-03 11:48:00,
2013-01-03 05:53:00,21.0,15.8,30.30,SW,219,0.0,1.0,80,0.00,,CLR,0.00,VWS V14.01,2013-01-03 11:53:00,
2013-01-03 05:58:00,21.0,15.8,30.30,SW,219,0.0,3.0,80,0.00,,CLR,0.00,VWS V14.01,2013-01-03 11:58:00,
2013-01-03 06:03:00,20.9,15.7,30.30,SW,219,0.0,1.0,80,0.00,,CLR,0.00,VWS V14.01,2013-01-03 12:03:00,
2013-01-03 06:08:00,20.9,15.7,30.30,SW,219,0.0,1.0,80,0.00,,CLR,0.00,VWS V14.01,2013-01-03 12:08:00,
2013-01-03 06:13:00,20.8,15.6,30.30,SW,219,0.0,0.0,80,0.00,,CLR,0.00,VWS V14.01,2013-01-03 12:13:00,
2013-01-03 06:18:00,20.8,15.6,30.30,SW,219,0.0,2.0,80,0.00,,CLR,0.00,VWS V14.01,2013-01-03 12:18:00,
2013-01-03 06:23:00,20.8,15.6,30.30,SW,219,0.0,3.0,80,0.00,,CLR,0.00,VWS V14.01,2013-01-03 12:23:00,
2013-01-03 06:28:00,21.0,16.1,30.30,SW,219,0.0,3.0,81,0.00,,CLR,0.00,VWS V14.01,2013-01-03 12:28:00,
2013-01-03 06:33:00,21.0,15.8,30.31,SW,219,0.0,0.0,80,0.00,,CLR,0.00,VWS V14.01,2013-01-03 12:33:00,
2013-01-03 06:38:00,20.9,15.7,30.31,SW,219,0.0,1.0,80,0.00,,CLR,0.00,VWS V14.01,2013-01-03 12:38:00,
2013-01-03 06:44:00,20.8,15.6,30.31,SW,219,0.0,0.0,80,0.00,,CLR,0.00,VWS V14.01,2013-01-03 12:44:00,
2013-01-03 06:49:00,20.8,15.9,30.31,SW,219,0.0,3.0,81,0.00,,CLR,0.00,VWS V14.01,2013-01-03 12:49:00,
2013-01-03 06:54:00,20.9,16.0,30.32,SW,219,0.0,2.0,81,0.00,,CLR,0.00,VWS V14.01,2013-01-03 12:54:00,
2013-01-03 06:59:00,21.0,16.1,30.31,SW,219,0.0,2.0,81,0.00,,CLR,0.00,VWS V14.01,2013-01-03 12:59:00,
2013-01-03 07:04:00,21.1,16.2,30.31,SW,219,0.0,0.0,81,0.00,,CLR,0.00,VWS V14.01,2013-01-03 13:04:00,
2013-01-03 07:09:00,21.2,16.3,30.31,SW,219,0.0,1.0,81,0.00,,CLR,0.00,VWS V14.01,2013-01-03 13:09:00,
2013-01-03 07:14:00,21.3,16.4,30.31,SW,219,0.0,0.0,81,0.00,,CLR,0.00,VWS V14.01,2013-01-03 13:14:00,
2013-01-03 07:19:00,21.3,16.4,30.31,SW,219,0.0,2.0,81,0.00,,CLR,0.00,VWS V14.01,2013-01-03 13:19:00,
2013-01-03 07:24:00,21.3,16.4,30.32,SW,219,0.0,0.0,81,0.00,,CLR,0.00,VWS V14.01,2013-01-03 13:24:00,
2013-01-03 07:29:00,21.3,16.4,30.32,SW,219,0.0,1.0,81,0.00,,CLR,0.00,VWS V14.01,2013-01-03 13:29:00,
2013-01-03 07:34:00,21.3,16.4,30.32,SW,219,0.0,2.0,81,0.00,,CLR,0.00,VWS V14.01,2013-01-03 13:34:00,
2013-01-03 07:39:00,21.4,16.5,30.32,SW,219,4.0,4.0,81,0.00,,CLR,0.00,VWS V14.01,2013-01-03 13:39:00,
2013-01-03 07:44:00,21.5,16.6,30.33,SW,219,0.0,1.0,81,0.00,,CLR,0.00,VWS V14.01,2013-01-03 13:44:00,
2013-01-03 07:49:00,21.5,16.6,30.33,SW,219,0.0,2.0,81,0.00,,CLR,0.00,VWS V14.01,2013-01-03 13:49:00,
2013-01-03 07:54:00,21.6,16.7,30.33,SW,221,1.0,4.0,81,0.00,,CLR,0.00,VWS V14.01,2013-01-03 13:54:00,
2013-01-03 07:59:00,21.8,16.9,30.33,SW,229,0.0,6.0,81,0.00,,CLR,0.00,VWS V14.01,2013-01-03 13:59:00,
2013-01-03 08:04:00,21.9,17.0,30.33,SW,229,0.0,4.0,81,0.00,,CLR,0.00,VWS V14.01,2013-01-03 14:04:00,
2013-01-03 08:09:00,22.2,17.3,30.33,SW,230,1.0,5.0,81,0.00,,CLR,0.00,VWS V14.01,2013-01-03 14:09:00,
2013-01-03 08:14:00,22.4,17.5,30.33,SW,230,0.0,4.0,81,0.00,,CLR,0.00,VWS V14.01,2013-01-03 14:14:00,
2013-01-03 08:19:00,22.6,17.7,30.33,SW,236,3.0,5.0,81,0.00,,CLR,0.00,VWS V14.01,2013-01-03 14:19:00,
2013-01-03 08:24:00,22.9,18.0,30.33,WSW,238,1.0,3.0,81,0.00,,CLR,0.00,VWS V14.01,2013-01-03 14:24:00,
2013-01-03 08:29:00,23.3,18.3,30.33,WSW,238,1.0,5.0,81,0.00,,CLR,0.00,VWS V14.01,2013-01-03 14:29:00,
2013-01-03 08:34:00,23.7,18.5,30.33,WSW,238,0.0,3.0,80,0.00,,,0.00,VWS V14.01,2013-01-03 14:34:00,
2013-01-03 08:39:00,24.1,18.8,30.33,West,259,3.0,6.0,80,0.00,,,0.00,VWS V14.01,2013-01-03 14:39:00,
2013-01-03 08:44:00,24.4,18.8,30.34,WSW,255,3.0,4.0,79,0.00,,,0.00,VWS V14.01,2013-01-03 14:44:00,
2013-01-03 08:49:00,24.7,19.1,30.34,WSW,245,3.0,4.0,79,0.00,,,0.00,VWS V14.01,2013-01-03 14:49:00,
2013-01-03 08:54:00,25.1,19.5,30.34,WSW,246,1.0,5.0,79,0.00,,,0.00,VWS V14.01,2013-01-03 14:54:00,
2013-01-03 08:59:00,25.4,19.8,30.35,SW,234,4.0,6.0,79,0.00,,,0.00,VWS V14.01,2013-01-03 14:59:00,
2013-01-03 09:04:00,25.6,19.7,30.35,WSW,240,1.0,7.0,78,0.00,,,0.00,VWS V14.01,2013-01-03 15:04:00,
2013-01-03 09:09:00,25.9,20.0,30.35,WSW,248,1.0,7.0,78,0.00,,,0.00,VWS V14.01,2013-01-03 15:09:00,
2013-01-03 09:14:00,26.3,20.4,30.35,WSW,249,4.0,6.0,78,0.00,,,0.00,VWS V14.01,2013-01-03 15:14:00,
2013-01-03 09:19:00,26.7,20.8,30.35,WSW,252,0.0,6.0,78,0.00,,,0.00,VWS V14.01,2013-01-03 15:19:00,
2013-01-03 09:24:00,27.0,21.1,30.35,WSW,242,4.0,7.0,78,0.00,,,0.00,VWS V14.01,2013-01-03 15:24:00,
2013-01-03 09:29:00,27.2,21.3,30.36,WSW,257,1.0,8.0,78,0.00,,,0.00,VWS V14.01,2013-01-03 15:29:00,
2013-01-03 09:34:00,27.4,21.1,30.36,West,263,6.0,7.0,77,0.00,,CLR,0.00,VWS V14.01,2013-01-03 15:34:00,
2013-01-03 09:39:00,27.7,21.8,30.36,WSW,241,0.0,7.0,78,0.00,,CLR,0.00,VWS V14.01,2013-01-03 15:39:00,
2013-01-03 09:44:00,28.0,21.7,30.36,WSW,248,1.0,5.0,77,0.00,,CLR,0.00,VWS V14.01,2013-01-03 15:44:00,
2013-01-03 09:49:00,28.0,21.7,30.37,WSW,248,3.0,8.0,77,0.00,,CLR,0.00,VWS V14.01,2013-01-03 15:49:00,
2013-01-03 09:54:00,28.3,22.0,30.37,WSW,240,3.0,5.0,77,0.00,,CLR,0.00,VWS V14.01,2013-01-03 15:54:00,
2013-01-03 09:59:00,28.5,22.2,30.37,West,279,7.0,7.0,77,0.00,,CLR,0.00,VWS V14.01,2013-01-03 15:59:00,
2013-01-03 10:04:00,28.2,21.9,30.37,West,264,6.0,8.0,77,0.00,,CLR,0.00,VWS V14.01,2013-01-03 16:04:00,
2013-01-03 10:09:00,28.1,21.8,30.37,WSW,239,7.0,9.0,77,0.00,,CLR,0.00,VWS V14.01,2013-01-03 16:09:00,
2013-01-03 10:14:00,28.4,22.1,30.37,WSW,250,3.0,9.0,77,0.00,,CLR,0.00,VWS V14.01,2013-01-03 16:14:00,
2013-01-03 10:19:00,28.6,22.3,30.37,WSW,251,3.0,9.0,77,0.00,,CLR,0.00,VWS V14.01,2013-01-03 16:19:00,
2013-01-03 10:24:00,28.8,22.5,30.38,WSW,249,3.0,6.0,77,0.00,,CLR,0.00,VWS V14.01,2013-01-03 16:24:00,
2013-01-03 10:29:00,29.0,22.7,30.38,West,259,2.0,6.0,77,0.00,,CLR,0.00,VWS V14.01,2013-01-03 16:29:00,
2013-01-03 10:34:00,29.4,22.8,30.38,SW,224,1.0,4.0,76,0.00,,CLR,0.00,VWS V14.01,2013-01-03 16:34:00,
2013-01-03 10:39:00,29.8,23.2,30.38,WSW,247,6.0,7.0,76,0.00,,CLR,0.00,VWS V14.01,2013-01-03 16:39:00,
2013-01-03 10:44:00,29.6,23.0,30.38,WSW,255,3.0,7.0,76,0.00,,CLR,0.00,VWS V14.01,2013-01-03 16:44:00,
2013-01-03 10:49:00,30.1,23.5,30.38,WNW,292,4.0,9.0,76,0.00,,CLR,0.00,VWS V14.01,2013-01-03 16:49:00,
2013-01-03 10:54:00,30.5,23.9,30.38,West,278,3.0,5.0,76,0.00,,CLR,0.00,VWS V14.01,2013-01-03 16:54:00,
2013-01-03 10:59:00,30.6,23.6,30.38,West,263,3.0,8.0,75,0.00,,CLR,0.00,VWS V14.01,2013-01-03 16:59:00,
2013-01-03 11:04:00,30.8,24.1,30.37,WSW,249,2.0,6.0,76,0.00,,CLR,0.00,VWS V14.01,2013-01-03 17:04:00,
2013-01-03 11:09:00,30.9,24.2,30.37,SW,229,3.0,7.0,76,0.00,,CLR,0.00,VWS V14.01,2013-01-03 17:09:00,
2013-01-03 11:14:00,31.1,24.4,30.36,SW,218,4.0,4.0,76,0.00,,CLR,0.00,VWS V14.01,2013-01-03 17:14:00,
2013-01-03 11:19:00,31.3,24.3,30.36,West,271,3.0,7.0,75,0.00,,CLR,0.00,VWS V14.01,2013-01-03 17:19:00,
2013-01-03 11:24:00,32.0,25.3,30.36,WSW,257,4.0,7.0,76,0.00,,CLR,0.00,VWS V14.01,2013-01-03 17:24:00,
2013-01-03 11:29:00,31.8,24.8,30.36,SW,234,3.0,7.0,75,0.00,,CLR,0.00,VWS V14.01,2013-01-03 17:29:00,
2013-01-03 11:34:00,32.3,25.3,30.36,SW,229,5.0,6.0,75,0.00,,CLR,0.00,VWS V14.01,2013-01-03 17:34:00,
2013-01-03 11:39:00,32.1,25.1,30.36,WSW,252,4.0,7.0,75,0.00,,CLR,0.00,VWS V14.01,2013-01-03 17:39:00,
2013-01-03 11:44:00,32.8,26.1,30.36,WNW,298,4.0,5.0,76,0.00,,CLR,0.00,VWS V14.01,2013-01-03 17:44:00,
2013-01-03 11:49:00,33.3,25.9,30.35,NW,323,1.0,5.0,74,0.00,,CLR,0.00,VWS V14.01,2013-01-03 17:49:00,
2013-01-03 11:54:00,33.2,25.8,30.35,WSW,252,4.0,5.0,74,0.00,,CLR,0.00,VWS V14.01,2013-01-03 17:54:00,
2013-01-03 11:59:00,32.7,25.3,30.35,West,275,0.0,8.0,74,0.00,,CLR,0.00,VWS V14.01,2013-01-03 17:59:00,
2013-01-03 12:04:00,33.0,25.6,30.35,WSW,244,6.0,6.0,74,0.00,,CLR,0.00,VWS V14.01,2013-01-03 18:04:00,
2013-01-03 12:09:00,33.7,26.6,30.35,WNW,288,3.0,6.0,75,0.00,,CLR,0.00,VWS V14.01,2013-01-03 18:09:00,
2013-01-03 12:14:00,33.6,25.9,30.35,WSW,249,2.0,7.0,73,0.00,,CLR,0.00,VWS V14.01,2013-01-03 18:14:00,
2013-01-03 12:19:00,33.5,26.1,30.35,West,270,4.0,7.0,74,0.00,,CLR,0.00,VWS V14.01,2013-01-03 18:19:00,
2013-01-03 12:24:00,33.4,26.0,30.34,SW,234,1.0,6.0,74,0.00,,CLR,0.00,VWS V14.01,2013-01-03 18:24:00,
2013-01-03 12:29:00,34.3,26.6,30.34,West,280,2.0,6.0,73,0.00,,CLR,0.00,VWS V14.01,2013-01-03 18:29:00,
2013-01-03 12:34:00,34.5,26.4,30.34,SW,230,5.0,7.0,72,0.00,,CLR,0.00,VWS V14.01,2013-01-03 18:34:00,
2013-01-03 12:39:00,34.3,26.2,30.34,WSW,244,2.0,7.0,72,0.00,,CLR,0.00,VWS V14.01,2013-01-03 18:39:00,
2013-01-03 12:44:00,34.2,26.1,30.34,WSW,238,3.0,7.0,72,0.00,,CLR,0.00,VWS V14.01,2013-01-03 18:44:00,
2013-01-03 12:49:00,34.7,26.6,30.34,WSW,244,3.0,7.0,72,0.00,,CLR,0.00,VWS V14.01,2013-01-03 18:49:00,
2013-01-03 12:54:00,34.8,26.7,30.34,WSW,242,1.0,4.0,72,0.00,,CLR,0.00,VWS V14.01,2013-01-03 18:54:00,
2013-01-03 12:59:00,35.0,26.2,30.33,SW,230,3.0,7.0,70,0.00,,CLR,0.00,VWS V14.01,2013-01-03 18:59:00,
2013-01-03 13:04:00,35.3,26.5,30.33,WNW,295,2.0,5.0,70,0.00,,CLR,0.00,VWS V14.01,2013-01-03 19:04:00,
2013-01-03 13:09:00,35.6,26.8,30.33,WSW,252,1.0,7.0,70,0.00,,CLR,0.00,VWS V14.01,2013-01-03 19:09:00,
2013-01-03 13:14:00,35.6,26.5,30.33,WSW,258,3.0,5.0,69,0.00,,CLR,0.00,VWS V14.01,2013-01-03 19:14:00,
2013-01-03 13:55:00,36.2,27.0,30.34,WSW,254,1.0,6.0,69,0.00,,CLR,0.00,VWS V14.01,2013-01-03 19:55:00,
2013-01-03 14:00:00,36.5,27.3,30.34,WSW,242,3.0,7.0,69,0.00,,CLR,0.00,VWS V14.01,2013-01-03 20:00:00,
2013-01-03 14:05:00,36.7,27.1,30.34,WNW,292,3.0,10.0,68,0.00,,CLR,0.00,VWS V14.01,2013-01-03 20:05:00,
2013-01-03 14:10:00,36.8,27.6,30.34,WSW,248,3.0,10.0,69,0.00,,CLR,0.00,VWS V14.01,2013-01-03 20:10:00,
2013-01-03 14:15:00,36.9,28.0,30.34,SW,232,1.0,4.0,70,0.00,,CLR,0.00,VWS V14.01,2013-01-03 20:15:00,
2013-01-03 14:20:00,37.3,28.1,30.34,SW,232,1.0,4.0,69,0.00,,CLR,0.00,VWS V14.01,2013-01-03 20:20:00,
2013-01-03 14:25:00,37.5,27.5,30.35,WSW,240,1.0,7.0,67,0.00,,CLR,0.00,VWS V14.01,2013-01-03 20:25:00,
2013-01-03 14:30:00,37.7,27.4,30.35,WSW,239,3.0,7.0,66,0.00,,CLR,0.00,VWS V14.01,2013-01-03 20:30:00,
2013-01-03 14:35:00,37.6,27.6,30.35,WSW,249,4.0,6.0,67,0.00,,CLR,0.00,VWS V14.01,2013-01-03 20:35:00,
2013-01-03 14:40:00,37.3,28.1,30.35,SSW,194,2.0,6.0,69,0.00,,CLR,0.00,VWS V14.01,2013-01-03 20:40:00,
2013-01-03 14:45:00,36.9,28.0,30.35,SW,215,0.0,4.0,70,0.00,,CLR,0.00,VWS V14.01,2013-01-03 20:45:00,
2013-01-03 14:50:00,36.8,28.0,30.35,SW,216,2.0,4.0,70,0.00,,CLR,0.00,VWS V14.01,2013-01-03 20:50:00,
2013-01-03 14:55:00,36.8,28.0,30.35,SW,218,4.0,5.0,70,0.00,,CLR,0.00,VWS V14.01,2013-01-03 20:55:00,
2013-01-03 15:00:00,36.9,28.0,30.35,SW,229,2.0,5.0,70,0.00,,CLR,0.00,VWS V14.01,2013-01-03 21:00:00,
2013-01-03 15:05:00,36.9,27.7,30.35,WSW,238,5.0,6.0,69,0.00,,CLR,0.00,VWS V14.01,2013-01-03 21:05:00,
2013-01-03 15:10:00,36.7,27.5,30.35,WSW,242,3.0,6.0,69,0.00,,CLR,0.00,VWS V14.01,2013-01-03 21:10:00,
2013-01-03 15:15:00,36.8,28.0,30.35,WSW,242,0.0,3.0,70,0.00,,CLR,0.00,VWS V14.01,2013-01-03 21:15:00,
2013-01-03 15:20:00,37.1,27.9,30.35,SW,234,1.0,3.0,69,0.00,,CLR,0.00,VWS V14.01,2013-01-03 21:20:00,
2013-01-03 15:25:00,36.6,27.8,30.35,SW,214,0.0,4.0,70,0.00,,CLR,0.00,VWS V14.01,2013-01-03 21:25:00,
2013-01-03 15:30:00,36.6,27.8,30.35,SW,214,2.0,4.0,70,0.00,,CLR,0.00,VWS V14.01,2013-01-03 21:30:00,
2013-01-03 15:35:00,36.3,27.5,30.35,SSW,201,0.0,4.0,70,0.00,,CLR,0.00,VWS V14.01,2013-01-03 21:35:00,
2013-01-03 15:40:00,36.3,27.5,30.35,SSW,201,1.0,4.0,70,0.00,,CLR,0.00,VWS V14.01,2013-01-03 21:40:00,
2013-01-03 15:45:00,36.5,27.7,30.35,SSW,201,1.0,4.0,70,0.00,,CLR,0.00,VWS V14.01,2013-01-03 21:45:00,
2013-01-03 15:50:00,36.5,27.7,30.35,WSW,250,0.0,5.0,70,0.00,,CLR,0.00,VWS V14.01,2013-01-03 21:50:00,
2013-01-03 15:55:00,36.4,27.6,30.35,WSW,250,0.0,2.0,70,0.00,,CLR,0.00,VWS V14.01,2013-01-03 21:55:00,
2013-01-03 16:00:00,36.4,27.2,30.35,WSW,242,3.0,6.0,69,0.00,,CLR,0.00,VWS V14.01,2013-01-03 22:00:00,
2013-01-03 16:05:00,36.1,27.3,30.36,WSW,242,2.0,5.0,70,0.00,,CLR,0.00,VWS V14.01,2013-01-03 22:05:00,
2013-01-03 16:10:00,36.0,27.2,30.36,SW,234,0.0,5.0,70,0.00,,CLR,0.00,VWS V14.01,2013-01-03 22:10:00,
2013-01-03 16:16:00,35.9,27.1,30.36,WSW,251,2.0,6.0,70,0.00,,CLR,0.00,VWS V14.01,2013-01-03 22:16:00,
2013-01-03 16:21:00,35.8,27.0,30.36,SW,227,0.0,6.0,70,0.00,,CLR,0.00,VWS V14.01,2013-01-03 22:21:00,
2013-01-03 16:26:00,35.6,26.8,30.36,SW,229,3.0,5.0,70,0.00,,CLR,0.00,VWS V14.01,2013-01-03 22:26:00,
2013-01-03 16:31:00,35.5,26.7,30.37,SW,229,0.0,5.0,70,0.00,,CLR,0.00,VWS V14.01,2013-01-03 22:31:00,
2013-01-03 16:36:00,35.3,26.5,30.36,SW,235,0.0,3.0,70,0.00,,CLR,0.00,VWS V14.01,2013-01-03 22:36:00,
2013-01-03 16:41:00,35.1,26.7,30.37,SW,235,0.0,3.0,71,0.00,,CLR,0.00,VWS V14.01,2013-01-03 22:41:00,
2013-01-03 16:46:00,34.9,26.5,30.36,SW,235,0.0,2.0,71,0.00,,CLR,0.00,VWS V14.01,2013-01-03 22:46:00,
2013-01-03 16:51:00,34.7,26.3,30.36,SW,235,3.0,3.0,71,0.00,,CLR,0.00,VWS V14.01,2013-01-03 22:51:00,
2013-01-03 16:56:00,34.5,26.4,30.36,SW,235,0.0,2.0,72,0.00,,CLR,0.00,VWS V14.01,2013-01-03 22:56:00,
2013-01-03 17:01:00,34.3,26.2,30.36,SW,235,0.0,2.0,72,0.00,,CLR,0.00,VWS V14.01,2013-01-03 23:01:00,
2013-01-03 17:06:00,34.1,26.0,30.36,SW,235,1.0,1.0,72,0.00,,CLR,0.00,VWS V14.01,2013-01-03 23:06:00,
2013-01-03 17:11:00,33.9,26.2,30.37,SW,235,0.0,2.0,73,0.00,,CLR,0.00,VWS V14.01,2013-01-03 23:11:00,
2013-01-03 17:16:00,33.8,26.1,30.37,SW,235,0.0,0.0,73,0.00,,CLR,0.00,VWS V14.01,2013-01-03 23:16:00,
2013-01-03 17:21:00,33.7,26.0,30.37,SW,235,0.0,0.0,73,0.00,,CLR,0.00,VWS V14.01,2013-01-03 23:21:00,
2013-01-03 17:26:00,33.5,26.1,30.37,SW,235,0.0,1.0,74,0.00,,CLR,0.00,VWS V14.01,2013-01-03 23:26:00,
2013-01-03 17:31:00,33.4,26.0,30.37,SW,235,0.0,1.0,74,0.00,,CLR,0.00,VWS V14.01,2013-01-03 23:31:00,
2013-01-03 17:36:00,33.3,25.9,30.37,SW,235,0.0,1.0,74,0.00,,,0.00,VWS V14.01,2013-01-03 23:36:00,
2013-01-03 17:41:00,33.4,26.3,30.37,SW,235,0.0,1.0,75,0.00,,,0.00,VWS V14.01,2013-01-03 23:41:00,
2013-01-03 17:46:00,33.4,26.3,30.37,SW,235,0.0,1.0,75,0.00,,,0.00,VWS V14.01,2013-01-03 23:46:00,
2013-01-03 17:51:00,33.3,26.2,30.38,SW,235,0.0,2.0,75,0.00,,,0.00,VWS V14.01,2013-01-03 23:51:00,
2013-01-03 17:56:00,33.0,26.0,30.38,SW,235,1.0,2.0,75,0.00,,BKN042,0.00,VWS V14.01,2013-01-03 23:56:00,
2013-01-03 18:01:00,32.8,25.8,30.38,SW,235,0.0,2.0,75,0.00,,BKN042,0.00,VWS V14.01,2013-01-04 00:01:00,
2013-01-03 18:06:00,32.5,25.8,30.38,SW,235,0.0,3.0,76,0.00,,BKN042,0.00,VWS V14.01,2013-01-04 00:06:00,
2013-01-03 18:11:00,32.4,26.0,30.38,SW,235,0.0,3.0,77,0.00,,BKN042,0.00,VWS V14.01,2013-01-04 00:11:00,
2013-01-03 18:16:00,32.5,26.1,30.38,SW,235,0.0,2.0,77,0.00,,OVC042,0.00,VWS V14.01,2013-01-04 00:16:00,
2013-01-03 18:21:00,32.5,26.1,30.38,SW,235,0.0,2.0,77,0.00,,OVC042,0.00,VWS V14.01,2013-01-04 00:21:00,
2013-01-03 18:26:00,32.4,26.0,30.38,SW,235,0.0,0.0,77,0.00,,OVC042,0.00,VWS V14.01,2013-01-04 00:26:00,
2013-01-03 18:31:00,32.3,25.9,30.39,SW,235,0.0,1.0,77,0.00,,OVC042,0.00,VWS V14.01,2013-01-04 00:31:00,
2013-01-03 18:36:00,32.1,25.7,30.39,SW,235,0.0,0.0,77,0.00,,OVC042,0.00,VWS V14.01,2013-01-04 00:36:00,
2013-01-03 18:41:00,31.8,25.4,30.39,SW,235,0.0,1.0,77,0.00,,OVC042,0.00,VWS V14.01,2013-01-04 00:41:00,
2013-01-03 18:46:00,31.6,25.2,30.39,SW,235,0.0,0.0,77,0.00,,OVC042,0.00,VWS V14.01,2013-01-04 00:46:00,
2013-01-03 18:51:00,31.4,25.4,30.39,SW,235,0.0,0.0,78,0.00,,SCT042,0.00,VWS V14.01,2013-01-04 00:51:00,
2013-01-03 18:56:00,31.3,25.2,30.39,SW,235,0.0,0.0,78,0.00,,SCT042,0.00,VWS V14.01,2013-01-04 00:56:00,
2013-01-03 19:01:00,31.3,25.6,30.39,SW,235,0.0,0.0,79,0.00,,SCT042,0.00,VWS V14.01,2013-01-04 01:01:00,
2013-01-03 19:06:00,31.3,25.6,30.39,SW,235,0.0,0.0,79,0.00,,SCT042,0.00,VWS V14.01,2013-01-04 01:06:00,
2013-01-03 19:11:00,31.3,25.6,30.39,SW,235,0.0,0.0,79,0.00,,SCT042,0.00,VWS V14.01,2013-01-04 01:11:00,
2013-01-03 19:16:00,31.2,25.5,30.39,SW,235,0.0,0.0,79,0.00,,SCT042,0.00,VWS V14.01,2013-01-04 01:16:00,
2013-01-03 19:21:00,31.3,25.6,30.39,SW,235,1.0,1.0,79,0.00,,SCT042,0.00,VWS V14.01,2013-01-04 01:21:00,
2013-01-03 19:26:00,31.4,25.6,30.39,SW,235,0.0,1.0,79,0.00,,SCT042,0.00,VWS V14.01,2013-01-04 01:26:00,
2013-01-03 19:31:00,31.4,25.6,30.39,SW,235,0.0,1.0,79,0.00,,SCT047,0.00,VWS V14.01,2013-01-04 01:31:00,
2013-01-03 19:36:00,31.4,25.6,30.39,SW,235,0.0,0.0,79,0.00,,SCT047,0.00,VWS V14.01,2013-01-04 01:36:00,
2013-01-03 19:41:00,31.3,25.6,30.39,SW,235,0.0,0.0,79,0.00,,BKN047,0.00,VWS V14.01,2013-01-04 01:41:00,
2013-01-03 19:46:00,31.4,25.6,30.39,SW,235,0.0,0.0,79,0.00,,BKN047,0.00,VWS V14.01,2013-01-04 01:46:00,
2013-01-03 19:51:00,31.4,25.6,30.39,SW,235,0.0,0.0,79,0.00,,OVC045,0.00,VWS V14.01,2013-01-04 01:51:00,
2013-01-03 19:56:00,31.5,25.8,30.39,SW,235,0.0,1.0,79,0.00,,OVC045,0.00,VWS V14.01,2013-01-04 01:56:00,
2013-01-03 20:01:00,31.5,25.8,30.39,SW,235,0.0,0.0,79,0.00,,OVC045,0.00,VWS V14.01,2013-01-04 02:01:00,
2013-01-03 20:06:00,31.7,25.9,30.39,SW,235,0.0,1.0,79,0.00,,OVC045,0.00,VWS V14.01,2013-01-04 02:06:00,
2013-01-03 20:11:00,31.8,25.7,30.39,SW,235,0.0,0.0,78,0.00,,OVC045,0.00,VWS V14.01,2013-01-04 02:11:00,
2013-01-03 20:16:00,32.0,25.9,30.39,SW,235,0.0,2.0,78,0.00,,OVC045,0.00,VWS V14.01,2013-01-04 02:16:00,
2013-01-03 20:21:00,32.0,25.9,30.39,SW,235,0.0,0.0,78,0.00,,OVC045,0.00,VWS V14.01,2013-01-04 02:21:00,
2013-01-03 20:26:00,32.2,26.1,30.39,SW,235,0.0,3.0,78,0.00,,OVC045,0.00,VWS V14.01,2013-01-04 02:26:00,
2013-01-03 20:31:00,32.3,25.9,30.39,SW,235,1.0,1.0,77,0.00,,OVC045,0.00,VWS V14.01,2013-01-04 02:31:00,
2013-01-03 20:36:00,32.4,26.0,30.39,SW,235,0.0,3.0,77,0.00,,OVC045,0.00,VWS V14.01,2013-01-04 02:36:00,
2013-01-03 20:41:00,32.4,26.0,30.39,SW,235,0.0,0.0,77,0.00,,OVC043,0.00,VWS V14.01,2013-01-04 02:41:00,
2013-01-03 20:46:00,32.4,26.0,30.39,SW,235,1.0,2.0,77,0.00,,OVC043,0.00,VWS V14.01,2013-01-04 02:46:00,
2013-01-03 20:51:00,32.5,25.8,30.40,SW,235,0.0,0.0,76,0.00,,OVC043,0.00,VWS V14.01,2013-01-04 02:51:00,
2013-01-03 20:56:00,32.5,25.8,30.40,SW,235,0.0,0.0,76,0.00,,OVC043,0.00,VWS V14.01,2013-01-04 02:56:00,
2013-01-03 21:01:00,32.7,26.0,30.40,SW,235,0.0,0.0,76,0.00,,OVC043,0.00,VWS V14.01,2013-01-04 03:01:00,
2013-01-03 21:06:00,32.8,25.8,30.40,SW,235,0.0,2.0,75,0.00,,OVC043,0.00,VWS V14.01,2013-01-04 03:06:00,
2013-01-03 21:11:00,32.7,25.7,30.40,SW,235,0.0,0.0,75,0.00,,OVC043,0.00,VWS V14.01,2013-01-04 03:11:00,
2013-01-03 21:16:00,32.7,25.7,30.40,SW,235,0.0,0.0,75,0.00,,OVC043,0.00,VWS V14.01,2013-01-04 03:16:00,
2013-01-03 21:21:00,32.8,25.8,30.41,SW,235,0.0,0.0,75,0.00,,OVC043,0.00,VWS V14.01,2013-01-04 03:21:00,
2013-01-03 21:26:00,32.8,25.8,30.41,SW,235,0.0,3.0,75,0.00,,OVC043,0.00,VWS V14.01,2013-01-04 03:26:00,
2013-01-03 21:31:00,32.8,25.8,30.41,SW,235,0.0,0.0,75,0.00,,OVC043,0.00,VWS V14.01,2013-01-04 03:31:00,
2013-01-03 21:36:00,32.8,25.8,30.41,SW,235,0.0,1.0,75,0.00,,OVC043,0.00,VWS V14.01,2013-01-04 03:36:00,
2013-01-03 21:41:00,32.8,25.8,30.41,SW,235,0.0,0.0,75,0.00,,OVC043,0.00,VWS V14.01,2013-01-04 03:41:00,
2013-01-03 21:46:00,32.7,25.7,30.41,SW,235,0.0,0.0,75,0.00,,OVC043,0.00,VWS V14.01,2013-01-04 03:46:00,
2013-01-03 21:51:00,32.6,25.6,30.41,SW,235,0.0,0.0,75,0.00,,OVC043,0.00,VWS V14.01,2013-01-04 03:51:00,
2013-01-03 21:56:00,32.5,25.8,30.41,SW,235,0.0,1.0,76,0.00,,OVC043,0.00,VWS V14.01,2013-01-04 03:56:00,
2013-01-03 22:01:00,32.4,25.7,30.41,SW,235,0.0,0.0,76,0.00,,OVC043,0.00,VWS V14.01,2013-01-04 04:01:00,
2013-01-03 22:06:00,32.2,25.8,30.40,SW,235,0.0,2.0,77,0.00,,OVC043,0.00,VWS V14.01,2013-01-04 04:06:00,
2013-01-03 22:11:00,32.1,25.7,30.41,SW,235,0.0,0.0,77,0.00,,OVC043,0.00,VWS V14.01,2013-01-04 04:11:00,
2013-01-03 22:16:00,32.1,25.7,30.41,SW,235,0.0,1.0,77,0.00,,OVC043,0.00,VWS V14.01,2013-01-04 04:16:00,
2013-01-03 22:21:00,32.0,25.6,30.41,SW,235,0.0,0.0,77,0.00,,OVC043,0.00,VWS V14.01,2013-01-04 04:21:00,
2013-01-03 22:26:00,32.0,25.6,30.41,SW,235,0.0,0.0,77,0.00,,OVC043,0.00,VWS V14.01,2013-01-04 04:26:00,
2013-01-03 22:31:00,32.0,27.4,30.41,SW,235,0.0,0.0,83,0.00,,OVC043,0.00,VWS V14.01,2013-01-04 04:31:00,
2013-01-03 22:36:00,31.8,25.7,30.41,SW,235,0.0,0.0,78,0.00,,OVC043,0.00,VWS V14.01,2013-01-04 04:36:00,
2013-01-03 22:41:00,31.7,25.6,30.41,SW,235,0.0,0.0,78,0.00,,OVC041,0.00,VWS V14.01,2013-01-04 04:41:00,
2013-01-03 22:46:00,31.5,25.4,30.41,SW,235,0.0,0.0,78,0.00,,OVC041,0.00,VWS V14.01,2013-01-04 04:46:00,
2013-01-03 22:51:00,31.5,25.4,30.41,SW,235,0.0,0.0,78,0.00,,OVC039,0.00,VWS V14.01,2013-01-04 04:51:00,
2013-01-03 22:56:00,31.5,25.4,30.40,SW,235,0.0,1.0,78,0.00,,OVC039,0.00,VWS V14.01,2013-01-04 04:56:00,
2013-01-03 23:07:00,31.3,25.2,30.40,SW,235,0.0,0.0,78,0.00,,OVC039,0.00,VWS V14.01,2013-01-04 05:07:00,
2013-01-03 23:11:00,31.4,25.4,30.40,SW,235,0.0,1.0,78,0.00,,OVC039,0.00,VWS V14.01,2013-01-04 05:11:00,
2013-01-03 23:12:00,31.4,25.4,30.40,SW,235,0.0,0.0,78,0.00,,OVC039,0.00,VWS V14.01,2013-01-04 05:12:00,
2013-01-03 23:17:00,31.4,25.4,30.40,SW,235,0.0,2.0,78,0.00,,OVC039,0.00,VWS V14.01,2013-01-04 05:17:00,
2013-01-03 23:21:00,31.3,25.2,30.40,SW,235,0.0,2.0,78,0.00,,OVC039,0.00,VWS V14.01,2013-01-04 05:21:00,
2013-01-03 23:27:00,31.3,25.2,30.40,SW,235,0.0,2.0,78,0.00,,OVC039,0.00,VWS V14.01,2013-01-04 05:27:00,
2013-01-03 23:32:00,31.4,25.4,30.40,SW,235,0.0,1.0,78,0.00,,OVC039,0.00,VWS V14.01,2013-01-04 05:32:00,
2013-01-03 23:37:00,31.5,25.4,30.40,SW,235,0.0,2.0,78,0.00,,OVC039,0.00,VWS V14.01,2013-01-04 05:37:00,
2013-01-03 23:42:00,31.5,25.1,30.40,SW,235,0.0,0.0,77,0.00,,OVC039,0.00,VWS V14.01,2013-01-04 05:42:00,
2013-01-03 23:47:00,31.5,25.1,30.40,SW,235,0.0,2.0,77,0.00,,OVC039,0.00,VWS V14.01,2013-01-04 05:47:00,
2013-01-03 23:52:00,31.4,25.0,30.40,SW,235,0.0,0.0,77,0.00,,OVC039,0.00,VWS V14.01,2013-01-04 05:52:00,
2013-01-03 23:57:00,31.2,24.8,30.40,SW,235,0.0,1.0,77,0.00,,OVC039,0.00,VWS V14.01,2013-01-04 05:57:00,